Weather History for Houma, LA

Change the Weather History Date:

Tuesday, February 25, 2014

  Actual Average Record
Temperature  
Mean Temperature 66 °F -  
Max Temperature 73 °F 68 °F 82 °F (1933)
Min Temperature 59 °F 46 °F 28 °F (1965)
Cooling Degree Days 1    
Growing Degree Days 16 (Base 50)    
Moisture  
Dew Point 63 °F    
Average Humidity 88    
Maximum Humidity 93    
Minimum Humidity 78    
Precipitation  
Precipitation 0.04 in - - ()
Sea Level Pressure  
Sea Level Pressure 30.00 in    
Wind  
Wind Speed 3 mph (SE)    
Max Wind Speed 12 mph    
Max Gust Speed -    
Visibility 4 miles    
Events Fog , Rain , Thunderstorm    
Averages and records for this station are not official NWS values.
T = Trace of Precipitation, MM = Missing Value Source: NWS Daily Summary

Daily Weather History Graph

Daily Weather History Graph

Search for Another Location

Airport:

Trip Planner

Search our weather history database for the weather conditions in past years. The results will help you decide how hot, cold, wet, or windy it might be!

Date:

Astronomy

Feb. 25, 2014 Rise Set
Actual Time 6:32 AM CST 5:59 PM CST
Civil Twilight 6:08 AM CST 6:23 PM CST
Nautical Twilight 5:40 AM CST 6:51 PM CST
Astronomical Twilight 5:13 AM CST 7:18 PM CST
Moon 3:15 AM CST (2/25) 2:16 PM CST (2/25)
Length of Visible Light 12h 14m
Length of Day
11h 26m
Waning Crescent, 18% of the Moon is Illuminated
Feb 25
Waning Crescent
Mar 1
New
Mar 8
First Quarter
Mar 16
Full
Mar 23
Last Quarter

Hourly Weather History & Observations

Time (CST) Temp. Dew Point Humidity Pressure Visibility Wind Dir Wind Speed Gust Speed Precip Events Conditions
12:15 AM 59.9 °F 57.6 °F 92% 30.06 in 0.2 mi Calm Calm - N/A Fog Fog
12:35 AM 60.1 °F 58.1 °F 93% 30.06 in 0.2 mi Calm Calm - N/A Fog Fog
12:55 AM 60.8 °F 58.6 °F 93% 30.06 in 0.5 mi NNE 3.5 mph - N/A Fog Fog
1:15 AM 61.0 °F 59.0 °F 93% 30.05 in 1.5 mi NE 4.6 mph - N/A   Mist
1:35 AM 61.2 °F 59.2 °F 93% 30.05 in 1.8 mi NE 3.5 mph - N/A   Mist
1:55 AM 61.2 °F 59.2 °F 93% 30.04 in 1.2 mi Calm Calm - N/A   Mist
2:15 AM 61.3 °F 59.4 °F 93% 30.05 in 2.0 mi Calm Calm - N/A   Mist
3:55 AM 61.7 °F 59.2 °F 91% 30.04 in 3.0 mi Calm Calm - N/A   Mist
4:15 AM 61.7 °F 59.0 °F 91% 30.03 in 2.5 mi East 4.6 mph - N/A   Mist
4:35 AM 61.3 °F 59.0 °F 92% 30.04 in 3.0 mi NE 4.6 mph - N/A   Mist
4:55 AM 61.7 °F 59.0 °F 91% 30.04 in 3.0 mi Calm Calm - N/A   Mist
5:48 AM 62.6 °F 59.0 °F 88% 30.05 in 4.0 mi East 4.6 mph - N/A   Mostly Cloudy
6:16 AM 62.6 °F 59.0 °F 88% 30.05 in 4.0 mi North 6.9 mph - N/A   Mostly Cloudy
6:50 AM 62.6 °F 59.0 °F 88% 30.07 in 3.0 mi East 4.6 mph - N/A   Mostly Cloudy
7:10 AM 62.6 °F 59.0 °F 88% 30.07 in 2.0 mi North 3.5 mph - N/A   Overcast
8:50 AM 66.2 °F 60.8 °F 83% 30.08 in 3.0 mi North 3.5 mph - N/A   Overcast
9:50 AM 69.8 °F 64.4 °F 83% 30.07 in 4.0 mi Calm Calm - N/A   Overcast
10:48 AM 71.6 °F 64.4 °F 78% 30.08 in 6.0 mi NE 9.2 mph - N/A   Haze
12:48 PM 71.6 °F 64.4 °F 78% 30.03 in 6.0 mi Calm Calm - N/A   Haze
1:16 PM 69.8 °F 64.4 °F 83% 30.02 in 3.0 mi Calm Calm - N/A Rain Rain
1:50 PM 69.8 °F 66.2 °F 88% 30.00 in 4.0 mi Calm Calm - N/A Rain Light Rain
2:33 PM 71.6 °F 66.2 °F 83% 29.98 in 3.0 mi East 4.6 mph - N/A Rain Light Rain
2:50 PM 71.6 °F 66.2 °F 83% 29.99 in 4.0 mi Calm Calm - N/A   Haze
3:25 PM 71.6 °F 66.2 °F 83% 29.96 in 7.0 mi East 4.6 mph - N/A   Mostly Cloudy
3:50 PM 73.4 °F 66.2 °F 78% 29.96 in 7.0 mi Calm Calm - N/A   Mostly Cloudy
4:50 PM 71.6 °F 64.4 °F 78% 29.96 in 7.0 mi Calm Calm - N/A   Mostly Cloudy
5:50 PM 69.8 °F 64.4 °F 83% 29.96 in 7.0 mi South 11.5 mph - N/A   Mostly Cloudy
6:15 PM 69.1 °F 64.8 °F 86% 29.96 in 10.0 mi SSE 6.9 mph - 0.01 in Rain , Thunderstorm Light Thunderstorms and Rain
6:35 PM 68.5 °F 65.1 °F 89% 29.97 in 7.0 mi SSE 4.6 mph - 0.04 in Rain , Thunderstorm Light Thunderstorms and Rain
6:55 PM 68.2 °F 64.9 °F 89% 29.95 in 7.0 mi South 6.9 mph - 0.04 in   Unknown
7:15 PM 68.0 °F 64.8 °F 89% 29.94 in 7.0 mi South 6.9 mph - N/A Thunderstorm Unknown
7:35 PM 67.8 °F 64.8 °F 90% 29.95 in 5.0 mi South 3.5 mph - N/A   Mist
8:00 PM 67.3 °F 64.4 °F 90% 29.97 in 5.0 mi South 3.5 mph - N/A   Mist
8:15 PM 67.6 °F 64.9 °F 91% 29.97 in 7.0 mi Calm Calm - N/A   Unknown
8:35 PM 68.0 °F 65.3 °F 91% 29.96 in 5.0 mi SE 4.6 mph - N/A   Mist
8:55 PM 67.5 °F 64.8 °F 91% 29.94 in 5.0 mi SE 4.6 mph - N/A Thunderstorm Mist
9:15 PM 67.8 °F 65.1 °F 91% 29.95 in 5.0 mi South 4.6 mph - N/A   Mist
9:35 PM 68.0 °F 65.3 °F 91% 29.95 in 5.0 mi South 4.6 mph - N/A   Mist
9:55 PM 68.0 °F 65.3 °F 91% 29.96 in 5.0 mi South 5.8 mph - N/A   Mist
10:15 PM 68.0 °F 65.3 °F 91% 29.95 in 4.0 mi South 4.6 mph - N/A   Mist
10:35 PM 68.0 °F 65.3 °F 91% 29.94 in 4.0 mi South 6.9 mph - N/A   Mist
10:55 PM 68.2 °F 65.7 °F 92% 29.93 in 5.0 mi South 6.9 mph - N/A   Mist
11:15 PM 68.4 °F 65.7 °F 91% 29.92 in 7.0 mi SSW 4.6 mph - N/A   Unknown
11:35 PM 68.5 °F 65.8 °F 91% 29.91 in 5.0 mi South 4.6 mph - N/A   Mist
11:55 PM 68.5 °F 65.8 °F 91% 29.91 in 5.0 mi South 3.5 mph - N/A   Mist